Eau Claire, WI

4:51 AM CDT on July 30, 2016 (GMT -0500)
Chippewa Valley Regional

Weather History for KEAU - December, 2014

Change the Weather History Date:

Wednesday, December 17, 2014

  Actual Average Record
Temperature  
Mean Temperature 18 °F 18 °F  
Max Temperature 21 °F 26 °F 47 °F (1997)
Min Temperature 14 °F 10 °F -21 °F (1985)
Degree Days  
Heating Degree Days 47 47  
Month to date heating degree days 674 750  
Since 1 July heating degree days 2646 2496  
Cooling Degree Days 0 0  
Month to date cooling degree days 0 0  
Year to date cooling degree days 500 579  
Moisture  
Dew Point 11 °F    
Average Humidity 74    
Maximum Humidity 80    
Minimum Humidity 67    
Precipitation  
Precipitation T in 0.03 in 0.66 in (1908)
Month to date precipitation 0.10 0.61  
Year to date precipitation 42.40 30.59  
Snow  
Snow T in 0.30 in 5.00 in (1908)
Month to date snowfall 0.5 5.2  
Since 1 July snowfall 14.7 11.5  
Snow Depth T in    
Sea Level Pressure  
Sea Level Pressure 30.31 in    
Wind  
Wind Speed 7 mph (WNW)    
Max Wind Speed 14 mph    
Max Gust Speed 17 mph    
Visibility 10 miles    
Events Snow    
T = Trace of Precipitation, MM = Missing Value Source: NWS Daily Summary

Daily Weather History Graph

Daily Weather History Graph

Search for Another Location

Airport or City:

Trip Planner

Search our weather history database for the weather conditions in past years. The results will help you decide how hot, cold, wet, or windy it might be!

Date:

Astronomy

Dec. 17, 2014 Rise Set
Actual Time 7:38 AM CST 4:25 PM CST
Civil Twilight 7:04 AM CST 4:59 PM CST
Nautical Twilight 6:27 AM CST 5:36 PM CST
Astronomical Twilight 5:51 AM CST 6:12 PM CST
Moon 2:42 AM CST (12/17) 1:38 PM CST (12/17)
Length of Visible Light 9h 55m
Length of Day
8h 47m
Waning Crescent, 21% of the Moon is Illuminated
Dec 17
Waning Crescent
Dec 21
New
Dec 28
First Quarter
Jan 4
Full
Jan 13
Last Quarter

Hourly Weather History & Observations

Time (CST) Temp. Windchill Dew Point Humidity Pressure Visibility Wind Dir Wind Speed Gust Speed Precip Events Conditions
12:56 AM 21.0 °F 9.9 °F 14.0 °F 74% 30.24 in 10.0 mi WNW 10.4 mph - N/A   Overcast
1:56 AM 19.9 °F 9.3 °F 12.9 °F 74% 30.25 in 10.0 mi WNW 9.2 mph - N/A   Overcast
2:56 AM 19.9 °F 9.3 °F 12.9 °F 74% 30.26 in 10.0 mi WNW 9.2 mph - N/A   Overcast
3:56 AM 19.0 °F 6.8 °F 10.9 °F 71% 30.26 in 10.0 mi NW 11.5 mph - N/A   Overcast
4:56 AM 19.0 °F 9.0 °F 12.0 °F 74% 30.26 in 10.0 mi West 8.1 mph - N/A   Overcast
5:56 AM 18.0 °F 6.9 °F 12.0 °F 78% 30.28 in 8.0 mi West 9.2 mph - 0.00 in Snow Light Snow
6:56 AM 18.0 °F 7.7 °F 12.0 °F 78% 30.29 in 10.0 mi WNW 8.1 mph - 0.00 in   Overcast
7:56 AM 17.1 °F 5.8 °F 10.9 °F 77% 30.30 in 10.0 mi West 9.2 mph - N/A   Overcast
8:56 AM 17.1 °F 6.6 °F 12.0 °F 81% 30.31 in 10.0 mi West 8.1 mph - N/A   Overcast
9:56 AM 18.0 °F 7.7 °F 12.0 °F 78% 30.32 in 10.0 mi WNW 8.1 mph - N/A   Overcast
10:56 AM 19.0 °F 10.0 °F 10.9 °F 71% 30.32 in 10.0 mi WNW 6.9 mph - 0.00 in   Overcast
11:56 AM 18.0 °F 6.1 °F 10.0 °F 71% 30.32 in 10.0 mi NW 10.4 mph - 0.00 in   Overcast
12:56 PM 19.0 °F 8.2 °F 10.9 °F 71% 30.32 in 10.0 mi WNW 9.2 mph - N/A   Overcast
1:56 PM 19.0 °F 11.1 °F 10.0 °F 68% 30.32 in 10.0 mi WNW 5.8 mph - N/A   Overcast
2:56 PM 19.0 °F 10.0 °F 10.0 °F 68% 30.32 in 10.0 mi NNW 6.9 mph - N/A   Overcast
3:56 PM 18.0 °F 8.7 °F 9.0 °F 68% 30.33 in 10.0 mi NNW 6.9 mph - N/A   Mostly Cloudy
4:12 PM 18.0 °F 11.1 °F 9.0 °F 68% 30.28 in 10.0 mi North 4.6 mph - N/A   Partly Cloudy
4:56 PM 16.0 °F 10.4 °F 9.0 °F 74% 30.34 in 10.0 mi WNW 3.5 mph - N/A   Clear
5:56 PM 16.0 °F 10.4 °F 8.1 °F 71% 30.34 in 10.0 mi WNW 3.5 mph - N/A   Clear
6:56 PM 15.1 °F - 8.1 °F 74% 30.34 in 10.0 mi Calm Calm - N/A   Partly Cloudy
7:08 PM 15.1 °F 9.4 °F 8.1 °F 74% 30.29 in 10.0 mi West 3.5 mph - N/A   Mostly Cloudy
7:56 PM 16.0 °F 10.4 °F 10.0 °F 77% 30.34 in 10.0 mi West 3.5 mph - N/A   Overcast
8:56 PM 18.0 °F 12.7 °F 10.9 °F 74% 30.35 in 10.0 mi West 3.5 mph - N/A   Overcast
9:56 PM 18.0 °F 9.8 °F 10.9 °F 74% 30.36 in 10.0 mi WSW 5.8 mph - N/A   Overcast
10:56 PM 19.0 °F 12.3 °F 12.0 °F 74% 30.36 in 10.0 mi WNW 4.6 mph - N/A   Overcast
11:56 PM 19.0 °F - 12.9 °F 77% 30.35 in 10.0 mi Calm Calm - N/A   Overcast